Wind_Speed
20 21 21 22 23 24 25 25 24 24 25 25 25 25 25 26 27 28 28 29 30 31 32 33 33 34 35 35 35 35 35 36 37 38 40 42 42 42
21 21 22 23 24 24 24 24 24 24 23 23 24 25 26 26 27 29 29 30 31 31 31 32 33 34 34 35 35 35 36 37 38 38 39 41 42 43
20 21 22 22 23 22 22 22 23 23 22 23 24 25 26 27 28 29 30 30 31 32 32 32 31 32 33 34 35 35 35 36 37 38 39 41 42 44
19 19 20 21 21 20 21 21 21 22 22 22 23 25 26 27 27 28 29 30 30 31 31 31 31 31 31 32 34 34 35 35 36 38 39 41 43 44
19 19 20 20 20 20 21 21 21 21 22 22 23 24 25 26 26 27 28 29 30 30 31 32 31 31 32 31 32 34 34 34 35 37 38 40 42 43
19 20 21 20 21 21 21 21 22 22 23 23 24 25 26 26 27 27 27 27 28 28 29 29 30 31 31 31 32 34 35 35 35 36 37 38 41 43
19 20 20 21 21 21 21 21 22 23 24 24 24 25 26 26 26 27 26 26 26 27 27 28 29 30 30 30 32 33 35 35 35 36 36 36 38 41
19 20 21 21 21 21 22 22 23 24 24 24 25 25 25 25 25 25 25 26 26 25 26 26 27 28 29 30 31 32 33 34 34 34 35 36 37 39
20 21 20 20 21 21 22 23 23 23 23 24 24 24 24 24 25 25 25 25 25 25 25 26 27 28 29 30 31 31 32 33 34 34 35 36 36 37
20 21 21 21 21 21 22 23 23 23 24 24 24 23 23 23 24 24 24 24 25 25 25 26 26 27 28 29 30 30 31 32 33 34 34 35 36 37
20 21 21 21 22 22 22 22 22 23 23 23 23 23 23 23 23 24 23 24 24 24 24 24 25 26 27 28 28 28 29 30 31 32 33 34 35 37
21 21 22 22 23 22 22 22 23 23 23 23 23 22 22 23 24 24 24 24 24 23 22 22 23 24 24 23 23 24 25 26 27 29 31 32 34 35
20 21 22 22 22 23 22 22 23 23 23 22 21 21 22 22 23 24 23 23 23 23 22 22 21 21 20 20 20 21 22 22 23 25 27 29 31 33
20 21 21 21 22 23 22 22 23 23 22 21 20 20 21 21 23 24 24 22 21 21 21 21 20 19 19 19 18 19 20 21 21 22 24 25 27 29
19 20 20 21 22 23 23 23 23 22 20 19 20 21 21 22 23 23 23 21 20 21 21 20 20 20 19 18 18 18 19 20 20 21 23 24 25 27
18 19 20 22 23 23 24 24 23 21 19 19 20 21 22 23 24 24 22 21 21 21 21 21 20 19 19 19 19 19 19 19 19 19 21 22 24 25
19 20 21 22 23 23 23 23 23 21 20 20 20 21 22 22 24 24 22 21 21 21 21 21 20 19 18 18 17 18 17 17 18 18 19 20 22 24
21 21 21 21 22 23 23 23 22 21 21 21 20 21 22 22 22 22 21 21 22 21 21 20 20 19 18 17 17 17 16 16 15 16 17 18 19 21
20 21 21 22 22 22 22 22 22 21 21 22 22 22 22 23 23 22 21 21 21 21 21 21 20 19 18 17 16 17 16 16 15 15 15 16 16 18
20 21 21 21 22 22 22 22 22 21 21 22 22 23 23 23 23 22 22 22 22 22 21 21 20 19 18 17 16 16 16 15 14 14 14 14 14 14
20 20 21 22 22 22 21 21 21 20 21 21 22 22 23 23 23 23 23 23 22 22 22 21 20 19 19 17 16 15 15 14 13 13 13 13 12 13
19 20 20 20 20 20 20 20 20 20 20 21 21 22 22 23 23 23 23 23 23 22 21 20 19 19 18 17 16 15 14 13 12 12 12 12 12 12
18 19 19 20 20 20 19 19 19 19 20 20 21 22 22 23 23 23 23 23 23 22 21 19 18 17 16 16 16 14 13 13 13 12 12 11 11 11
Wind_Direction
294 294 294 294 295 295 293 291 288 285 282 282 282 281 279 278 278 279 280 279 276 274 273 269 268 266 264 262 260 258 256 255 253 251 248 246 244 242
297 296 298 297 297 296 294 292 291 289 287 286 283 281 280 279 279 281 280 280 279 277 274 271 269 267 265 262 260 259 258 255 253 251 249 246 244 241
301 299 299 299 299 298 297 296 295 294 291 288 286 284 283 283 282 281 280 280 280 279 276 273 271 268 265 262 261 259 258 256 254 251 250 247 244 241
308 306 304 302 300 301 300 300 300 298 296 294 292 290 288 289 287 284 283 283 281 279 277 275 273 270 268 264 261 259 258 256 254 252 249 247 245 241
311 310 308 305 302 303 303 302 302 301 300 297 295 294 292 290 291 289 287 286 284 281 278 275 272 272 271 267 263 260 259 257 255 253 251 248 246 243
312 312 310 307 306 307 305 303 301 301 301 299 297 295 294 293 293 292 289 288 286 285 282 277 274 273 272 270 266 262 261 259 257 255 252 250 247 244
313 313 313 312 310 308 308 306 305 303 303 302 300 299 298 297 295 296 293 291 289 287 284 280 277 276 274 272 269 265 262 259 257 256 254 252 248 246
314 314 315 313 313 311 310 309 309 308 306 305 304 303 302 300 298 297 295 293 291 289 287 285 282 280 278 274 270 266 263 259 257 256 254 251 249 245
316 317 319 317 315 313 312 312 312 312 309 309 308 306 304 302 301 300 298 295 293 291 288 286 285 282 279 276 273 270 265 261 258 256 253 251 248 244
317 318 318 319 317 317 317 316 316 315 312 310 309 307 304 304 306 305 301 296 294 293 290 288 286 284 280 278 275 271 267 263 260 255 253 251 249 245
316 317 317 317 317 316 317 318 318 318 317 314 312 311 307 306 308 307 305 301 299 299 296 292 289 287 284 279 276 273 270 265 262 258 253 250 248 245
315 316 317 317 318 318 317 317 319 319 319 318 317 316 314 312 311 310 308 306 303 303 301 298 295 292 290 285 279 274 271 268 264 259 255 252 248 245
314 315 315 317 319 320 320 318 318 317 318 317 317 318 318 317 315 314 313 312 309 307 305 303 302 300 297 291 284 279 274 270 265 260 256 254 251 247
314 314 314 316 319 320 321 320 318 316 317 318 318 318 319 319 319 319 319 317 315 312 309 305 304 303 301 295 288 283 279 276 271 264 260 256 254 250
314 315 316 318 320 320 320 321 320 317 316 317 321 322 322 321 321 321 322 321 321 319 316 312 307 304 302 297 293 287 282 277 273 268 263 260 255 250
316 316 317 318 319 320 322 322 322 319 317 316 317 320 320 321 322 321 320 320 320 319 317 315 311 307 303 296 294 292 287 281 275 269 265 260 256 252
314 314 316 318 319 319 321 322 321 319 317 317 318 318 318 319 321 322 321 320 318 318 318 315 312 311 308 301 296 295 292 286 277 272 267 261 257 254
314 316 316 318 319 321 322 322 322 321 319 318 319 320 320 320 320 321 321 320 318 318 317 318 316 312 307 303 301 299 297 294 286 277 272 266 260 256
316 318 318 318 319 321 322 322 321 322 322 321 321 321 321 320 320 320 319 318 317 316 316 316 315 312 309 305 302 300 299 297 291 284 278 272 266 260
317 318 318 318 319 319 321 323 321 320 321 322 321 321 321 321 319 318 317 317 317 316 315 315 315 311 308 307 303 300 301 300 294 288 280 273 270 266
320 320 320 319 319 320 321 324 322 321 323 324 324 324 324 323 322 319 317 317 317 315 315 314 312 309 306 305 304 303 300 299 295 290 282 275 270 265
323 323 322 322 323 323 323 324 324 324 325 326 328 329 328 327 326 323 321 319 318 317 316 314 311 309 307 306 303 300 297 295 292 289 283 277 274 269
322 322 323 323 324 324 325 326 326 328 329 330 330 331 330 329 329 328 326 324 322 320 318 315 313 310 308 308 305 300 296 293 291 287 282 277 274 271
Height
5770 5768 5766 5763 5761 5758 5755 5753 5751 5749 5747 5745 5743 5742 5740 5739 5737 5735 5733 5731 5729 5728 5726 5726 5725 5725 5725 5725 5725 5726 5727 5729 5730 5732 5735 5738 5742 5746
5765 5762 5760 5757 5754 5751 5748 5745 5743 5741 5739 5737 5735 5734 5732 5730 5729 5726 5724 5722 5720 5718 5716 5715 5715 5714 5714 5714 5714 5715 5716 5718 5719 5721 5724 5726 5730 5734
5759 5757 5754 5751 5747 5744 5741 5738 5736 5733 5731 5730 5727 5726 5724 5722 5720 5718 5715 5713 5710 5708 5707 5705 5704 5704 5703 5703 5704 5704 5705 5706 5708 5710 5712 5715 5718 5722
5754 5751 5748 5745 5742 5739 5735 5732 5730 5727 5725 5723 5721 5718 5716 5714 5711 5708 5706 5703 5701 5699 5697 5696 5695 5694 5693 5692 5693 5693 5694 5695 5697 5698 5700 5703 5705 5708
5749 5746 5743 5739 5736 5733 5730 5727 5724 5721 5718 5716 5714 5711 5708 5705 5702 5699 5697 5694 5692 5689 5687 5686 5685 5684 5683 5682 5682 5683 5683 5685 5685 5686 5688 5690 5693 5696
5744 5741 5737 5734 5731 5728 5724 5721 5718 5715 5712 5709 5706 5703 5700 5697 5694 5691 5689 5686 5683 5680 5678 5676 5675 5673 5672 5671 5671 5672 5672 5673 5674 5675 5676 5678 5680 5683
5739 5736 5733 5729 5726 5722 5719 5715 5712 5708 5705 5702 5699 5696 5693 5689 5686 5683 5680 5677 5674 5671 5669 5667 5665 5664 5662 5661 5660 5660 5660 5661 5662 5663 5664 5666 5668 5671
5735 5732 5728 5724 5720 5717 5713 5709 5706 5702 5699 5695 5692 5689 5685 5682 5679 5675 5672 5669 5666 5664 5660 5658 5656 5654 5652 5651 5650 5650 5649 5649 5650 5651 5653 5655 5656 5659
5730 5727 5723 5719 5715 5711 5707 5703 5699 5695 5692 5689 5685 5682 5678 5675 5671 5668 5664 5661 5658 5655 5652 5650 5647 5645 5643 5641 5640 5639 5639 5639 5639 5640 5642 5644 5646 5648
5725 5722 5718 5714 5710 5706 5702 5698 5694 5690 5686 5682 5679 5675 5672 5668 5664 5661 5657 5653 5650 5647 5644 5642 5639 5637 5634 5632 5630 5629 5628 5628 5628 5629 5631 5633 5635 5638
5720 5717 5713 5710 5706 5701 5697 5693 5689 5685 5680 5676 5673 5669 5665 5661 5658 5654 5650 5646 5643 5639 5636 5633 5630 5628 5625 5622 5620 5619 5618 5617 5618 5619 5620 5622 5624 5627
5715 5712 5708 5704 5700 5696 5692 5688 5684 5679 5675 5671 5667 5663 5659 5655 5651 5647 5643 5639 5635 5632 5628 5625 5622 5618 5616 5613 5611 5609 5608 5608 5608 5608 5610 5611 5614 5616
5710 5707 5703 5699 5695 5691 5686 5683 5679 5675 5670 5666 5662 5658 5654 5650 5646 5641 5637 5632 5628 5625 5621 5618 5614 5611 5608 5606 5604 5602 5601 5600 5600 5600 5600 5602 5604 5606
5705 5701 5698 5694 5690 5686 5682 5678 5673 5669 5665 5661 5657 5653 5650 5646 5641 5636 5632 5627 5623 5619 5615 5611 5608 5605 5602 5600 5598 5596 5594 5593 5592 5592 5592 5593 5594 5596
5700 5696 5693 5689 5685 5681 5677 5672 5668 5664 5660 5657 5653 5649 5645 5641 5636 5632 5627 5622 5618 5613 5609 5605 5602 5599 5597 5594 5592 5590 5588 5587 5585 5585 5585 5585 5586 5587
5695 5692 5688 5685 5681 5677 5672 5667 5663 5659 5655 5652 5649 5645 5640 5636 5631 5627 5622 5618 5614 5610 5605 5601 5597 5594 5591 5588 5586 5584 5582 5580 5579 5578 5578 5578 5578 5579
5691 5687 5684 5680 5676 5672 5667 5663 5659 5655 5651 5648 5644 5640 5636 5631 5626 5622 5617 5613 5609 5605 5601 5597 5593 5589 5586 5583 5580 5578 5576 5574 5572 5571 5571 5570 5571 5572
5686 5682 5679 5675 5671 5667 5663 5658 5654 5650 5646 5642 5639 5635 5631 5626 5622 5617 5612 5608 5604 5600 5596 5592 5588 5584 5581 5578 5575 5572 5570 5568 5566 5565 5564 5564 5564 5564
5680 5677 5674 5670 5666 5662 5658 5654 5650 5646 5642 5638 5633 5629 5625 5621 5616 5612 5607 5603 5599 5595 5591 5587 5583 5579 5576 5574 5571 5567 5565 5563 5561 5559 5558 5558 5558 5558
5675 5672 5668 5665 5661 5657 5653 5648 5645 5641 5637 5633 5628 5624 5620 5615 5611 5606 5602 5598 5594 5590 5586 5582 5578 5574 5571 5568 5565 5563 5560 5558 5556 5554 5553 5553 5553 5553
5670 5666 5663 5659 5655 5651 5647 5644 5640 5636 5632 5628 5623 5619 5614 5610 5605 5601 5596 5592 5588 5584 5580 5576 5572 5569 5566 5563 5561 5558 5556 5553 5551 5550 5549 5548 5549 5549
5665 5662 5658 5654 5650 5646 5643 5639 5635 5631 5627 5623 5619 5614 5610 5605 5600 5596 5591 5587 5582 5578 5574 5570 5567 5563 5560 5558 5556 5553 5551 5549 5547 5545 5544 5544 5545 5545
5661 5657 5654 5650 5646 5642 5639 5635 5631 5627 5623 5619 5615 5610 5606 5601 5596 5591 5586 5582 5577 5573 5569 5565 5562 5559 5556 5553 5551 5549 5547 5545 5544 5542 5541 5541 5541 5541